Time,TemperatureF,DewpointF,PressureIn,WindDirection,WindDirectionDegrees,WindSpeedMPH,WindSpeedGustMPH,Humidity,HourlyPrecipIn,Conditions,Clouds,dailyrainin,SoftwareType,DateUTC
2013-04-06 00:12:00,53.1,51.0,30.09,ESE,123,5.0,-999.0,91,-99.99,,,0.00,weatherlink.com 1.10,2013-04-06 07:12:00,
2013-04-06 00:27:00,53.1,51.0,30.09,South,173,2.0,-999.0,91,-99.99,,,0.00,weatherlink.com 1.10,2013-04-06 07:27:00,
2013-04-06 00:41:00,53.3,51.0,30.09,SSE,153,2.0,-999.0,91,-99.99,,,0.00,weatherlink.com 1.10,2013-04-06 07:41:00,
2013-04-06 00:57:00,53.3,51.0,30.10,SSE,160,1.0,-999.0,91,-99.99,,,0.00,weatherlink.com 1.10,2013-04-06 07:57:00,
2013-04-06 01:12:00,53.2,51.0,30.09,SSE,160,0.0,-999.0,91,-99.99,,,0.00,weatherlink.com 1.10,2013-04-06 08:12:00,
2013-04-06 01:26:00,53.0,51.0,30.09,SSE,160,1.0,-999.0,91,-99.99,,,0.00,weatherlink.com 1.10,2013-04-06 08:26:00,
2013-04-06 01:42:00,52.8,50.0,30.09,SSE,160,1.0,-999.0,91,-99.99,,,0.00,weatherlink.com 1.10,2013-04-06 08:42:00,
2013-04-06 01:57:00,52.7,50.0,30.09,SSE,158,1.0,-999.0,91,-99.99,,,0.00,weatherlink.com 1.10,2013-04-06 08:57:00,
2013-04-06 02:12:00,52.9,50.0,30.08,SE,124,1.0,-999.0,91,-99.99,,,0.00,weatherlink.com 1.10,2013-04-06 09:12:00,
2013-04-06 02:27:00,53.1,50.0,30.08,SSE,167,4.0,-999.0,90,-99.99,,,0.00,weatherlink.com 1.10,2013-04-06 09:27:00,
2013-04-06 02:42:00,53.5,50.0,30.06,East,88,4.0,-999.0,89,-99.99,,,0.00,weatherlink.com 1.10,2013-04-06 09:42:00,
2013-04-06 02:57:00,53.8,51.0,30.06,South,169,2.0,-999.0,89,-99.99,,,0.00,weatherlink.com 1.10,2013-04-06 09:57:00,
2013-04-06 03:12:00,54.1,51.0,30.06,South,174,7.0,-999.0,88,-99.99,,,0.00,weatherlink.com 1.10,2013-04-06 10:12:00,
2013-04-06 03:27:00,54.1,51.0,30.07,SSE,149,7.0,-999.0,88,-99.99,,,0.00,weatherlink.com 1.10,2013-04-06 10:27:00,
2013-04-06 03:41:00,54.1,51.0,30.06,ESE,116,1.0,-999.0,89,-99.99,,,0.00,weatherlink.com 1.10,2013-04-06 10:41:00,
2013-04-06 03:56:00,53.8,51.0,30.06,SE,128,2.0,-999.0,90,-99.99,,,0.00,weatherlink.com 1.10,2013-04-06 10:56:00,
2013-04-06 04:11:00,53.5,51.0,30.05,South,171,5.0,-999.0,91,-99.99,,,0.00,weatherlink.com 1.10,2013-04-06 11:11:00,
2013-04-06 04:26:00,53.3,51.0,30.05,SSE,159,8.0,-999.0,92,-99.99,,,0.01,weatherlink.com 1.10,2013-04-06 11:26:00,
2013-04-06 04:42:00,53.2,51.0,30.06,SSE,160,6.0,-999.0,93,-99.99,,,0.01,weatherlink.com 1.10,2013-04-06 11:42:00,
2013-04-06 04:57:00,53.1,51.0,30.06,SE,128,5.0,-999.0,93,-99.99,,,0.03,weatherlink.com 1.10,2013-04-06 11:57:00,
2013-04-06 05:27:00,53.1,52.0,30.05,ESE,113,6.0,-999.0,94,-99.99,,,0.05,weatherlink.com 1.10,2013-04-06 12:27:00,
2013-04-06 05:41:00,53.1,52.0,30.06,South,169,2.0,-999.0,94,-99.99,,,0.05,weatherlink.com 1.10,2013-04-06 12:41:00,
2013-04-06 06:11:00,52.9,51.0,30.06,SSW,204,3.0,-999.0,94,-99.99,,,0.05,weatherlink.com 1.10,2013-04-06 13:11:00,
2013-04-06 06:26:00,53.2,52.0,30.07,SSE,162,4.0,-999.0,95,-99.99,,,0.05,weatherlink.com 1.10,2013-04-06 13:26:00,
2013-04-06 06:56:00,53.2,52.0,30.08,ESE,123,1.0,-999.0,95,-99.99,,,0.05,weatherlink.com 1.10,2013-04-06 13:56:00,
2013-04-06 07:11:00,53.2,52.0,30.08,SE,126,0.0,-999.0,95,-99.99,,,0.06,weatherlink.com 1.10,2013-04-06 14:11:00,
2013-04-06 07:27:00,53.3,52.0,30.09,SE,131,0.0,-999.0,95,-99.99,,,0.06,weatherlink.com 1.10,2013-04-06 14:27:00,
2013-04-06 07:43:00,53.5,52.0,30.09,SE,132,1.0,-999.0,95,-99.99,,,0.06,weatherlink.com 1.10,2013-04-06 14:43:00,
2013-04-06 07:58:00,53.7,52.0,30.09,SE,132,2.0,-999.0,95,-99.99,,,0.06,weatherlink.com 1.10,2013-04-06 14:58:00,
2013-04-06 08:12:00,53.9,53.0,30.10,SE,132,0.0,-999.0,95,-99.99,,,0.06,weatherlink.com 1.10,2013-04-06 15:12:00,
2013-04-06 08:27:00,54.0,53.0,30.10,SE,132,0.0,-999.0,95,-99.99,,,0.06,weatherlink.com 1.10,2013-04-06 15:27:00,
2013-04-06 08:42:00,53.7,52.0,30.10,SE,132,0.0,-999.0,95,-99.99,,,0.06,weatherlink.com 1.10,2013-04-06 15:42:00,
2013-04-06 08:57:00,54.2,53.0,30.09,ESE,111,0.0,-999.0,95,-99.99,,,0.06,weatherlink.com 1.10,2013-04-06 15:57:00,
2013-04-06 09:12:00,54.7,54.0,30.09,South,174,1.0,-999.0,96,-99.99,,,0.06,weatherlink.com 1.10,2013-04-06 16:12:00,
2013-04-06 09:27:00,54.9,54.0,30.10,South,174,4.0,-999.0,95,-99.99,,,0.06,weatherlink.com 1.10,2013-04-06 16:27:00,
2013-04-06 09:43:00,54.4,53.0,30.10,WSW,254,1.0,-999.0,95,-99.99,,,0.06,weatherlink.com 1.10,2013-04-06 16:43:00,
2013-04-06 09:57:00,54.3,53.0,30.11,West,265,2.0,-999.0,95,-99.99,,,0.06,weatherlink.com 1.10,2013-04-06 16:57:00,
2013-04-06 10:12:00,54.5,53.0,30.11,West,261,0.0,-999.0,95,-99.99,,,0.06,weatherlink.com 1.10,2013-04-06 17:12:00,
2013-04-06 10:27:00,55.0,54.0,30.11,West,273,1.0,-999.0,95,-99.99,,,0.06,weatherlink.com 1.10,2013-04-06 17:27:00,
2013-04-06 10:41:00,55.7,54.0,30.11,West,275,3.0,-999.0,95,-99.99,,,0.06,weatherlink.com 1.10,2013-04-06 17:41:00,
2013-04-06 10:56:00,55.5,54.0,30.13,WNW,291,4.0,-999.0,95,-99.99,,,0.06,weatherlink.com 1.10,2013-04-06 17:56:00,
2013-04-06 11:12:00,55.2,54.0,30.13,SSW,202,2.0,-999.0,94,-99.99,,,0.06,weatherlink.com 1.10,2013-04-06 18:12:00,
2013-04-06 11:27:00,55.7,54.0,30.14,SSW,207,6.0,-999.0,94,-99.99,,,0.06,weatherlink.com 1.10,2013-04-06 18:27:00,
2013-04-06 11:57:00,55.5,54.0,30.13,SSW,198,2.0,-999.0,94,-99.99,,,0.06,weatherlink.com 1.10,2013-04-06 18:57:00,
2013-04-06 12:12:00,56.7,55.0,30.14,SSW,202,3.0,-999.0,93,-99.99,,,0.06,weatherlink.com 1.10,2013-04-06 19:12:00,
2013-04-06 12:27:00,57.0,55.0,30.13,SSW,196,5.0,-999.0,91,-99.99,,,0.06,weatherlink.com 1.10,2013-04-06 19:27:00,
2013-04-06 12:42:00,57.5,55.0,30.13,SSW,207,3.0,-999.0,92,-99.99,,,0.06,weatherlink.com 1.10,2013-04-06 19:42:00,
2013-04-06 12:57:00,57.7,55.0,30.13,SW,214,4.0,-999.0,90,-99.99,,,0.06,weatherlink.com 1.10,2013-04-06 19:57:00,
2013-04-06 13:27:00,56.5,53.0,30.13,West,275,4.0,-999.0,89,-99.99,,,0.06,weatherlink.com 1.10,2013-04-06 20:27:00,
2013-04-06 13:41:00,55.7,53.0,30.14,West,277,1.0,-999.0,90,-99.99,,,0.06,weatherlink.com 1.10,2013-04-06 20:41:00,
2013-04-06 13:57:00,56.0,53.0,30.14,West,267,3.0,-999.0,90,-99.99,,,0.06,weatherlink.com 1.10,2013-04-06 20:57:00,
2013-04-06 14:12:00,55.6,53.0,30.13,WNW,292,4.0,-999.0,90,-99.99,,,0.06,weatherlink.com 1.10,2013-04-06 21:12:00,
2013-04-06 14:26:00,56.6,53.0,30.13,WSW,250,2.0,-999.0,87,-99.99,,,0.06,weatherlink.com 1.10,2013-04-06 21:26:00,
2013-04-06 14:41:00,57.2,53.0,30.12,North,351,1.0,-999.0,86,-99.99,,,0.06,weatherlink.com 1.10,2013-04-06 21:41:00,
2013-04-06 14:57:00,57.2,53.0,30.12,WSW,258,4.0,-999.0,86,-99.99,,,0.06,weatherlink.com 1.10,2013-04-06 21:57:00,
2013-04-06 15:11:00,56.7,53.0,30.12,WSW,258,3.0,-999.0,87,-99.99,,,0.06,weatherlink.com 1.10,2013-04-06 22:11:00,
2013-04-06 15:27:00,56.2,53.0,30.11,West,266,3.0,-999.0,88,-99.99,,,0.06,weatherlink.com 1.10,2013-04-06 22:27:00,
2013-04-06 15:42:00,56.1,53.0,30.12,WSW,258,5.0,-999.0,89,-99.99,,,0.06,weatherlink.com 1.10,2013-04-06 22:42:00,
2013-04-06 15:57:00,54.4,52.0,30.11,West,273,3.0,-999.0,91,-99.99,,,0.06,weatherlink.com 1.10,2013-04-06 22:57:00,
2013-04-06 16:12:00,53.6,51.0,30.12,West,275,2.0,-999.0,92,-99.99,,,0.06,weatherlink.com 1.10,2013-04-06 23:12:00,
2013-04-06 16:28:00,53.2,51.0,30.11,West,273,3.0,-999.0,93,-99.99,,,0.06,weatherlink.com 1.10,2013-04-06 23:28:00,
2013-04-06 16:42:00,53.1,51.0,30.11,West,271,2.0,-999.0,93,-99.99,,,0.06,weatherlink.com 1.10,2013-04-06 23:42:00,
2013-04-06 16:57:00,52.8,51.0,30.11,West,271,3.0,-999.0,93,-99.99,,,0.06,weatherlink.com 1.10,2013-04-06 23:57:00,
2013-04-06 17:12:00,53.0,51.0,30.11,West,271,2.0,-999.0,94,-99.99,,,0.06,weatherlink.com 1.10,2013-04-07 00:12:00,
2013-04-06 17:27:00,53.0,51.0,30.11,West,271,3.0,-999.0,94,-99.99,,,0.06,weatherlink.com 1.10,2013-04-07 00:27:00,
2013-04-06 17:42:00,52.9,51.0,30.10,West,269,2.0,-999.0,94,-99.99,,,0.06,weatherlink.com 1.10,2013-04-07 00:42:00,
2013-04-06 17:56:00,52.8,51.0,30.10,West,271,2.0,-999.0,94,-99.99,,,0.06,weatherlink.com 1.10,2013-04-07 00:56:00,
2013-04-06 18:12:00,52.6,51.0,30.11,West,267,2.0,-999.0,93,-99.99,,,0.06,weatherlink.com 1.10,2013-04-07 01:12:00,
2013-04-06 18:27:00,52.6,51.0,30.10,West,265,2.0,-999.0,94,-99.99,,,0.06,weatherlink.com 1.10,2013-04-07 01:27:00,
2013-04-06 18:43:00,52.6,51.0,30.10,West,261,2.0,-999.0,93,-99.99,,,0.06,weatherlink.com 1.10,2013-04-07 01:43:00,
2013-04-06 18:57:00,52.7,51.0,30.09,West,261,0.0,-999.0,94,-99.99,,,0.06,weatherlink.com 1.10,2013-04-07 01:57:00,
2013-04-06 19:12:00,52.5,51.0,30.09,West,261,0.0,-999.0,93,-99.99,,,0.06,weatherlink.com 1.10,2013-04-07 02:12:00,
2013-04-06 19:27:00,52.5,51.0,30.09,West,261,0.0,-999.0,93,-99.99,,,0.06,weatherlink.com 1.10,2013-04-07 02:27:00,
2013-04-06 19:42:00,52.4,51.0,30.09,West,261,0.0,-999.0,93,-99.99,,,0.06,weatherlink.com 1.10,2013-04-07 02:42:00,
2013-04-06 19:57:00,52.4,51.0,30.09,West,261,0.0,-999.0,93,-99.99,,,0.06,weatherlink.com 1.10,2013-04-07 02:57:00,
2013-04-06 20:12:00,52.1,50.0,30.09,West,261,0.0,-999.0,93,-99.99,,,0.06,weatherlink.com 1.10,2013-04-07 03:12:00,
2013-04-06 20:28:00,52.0,50.0,30.09,West,261,0.0,-999.0,93,-99.99,,,0.06,weatherlink.com 1.10,2013-04-07 03:28:00,
2013-04-06 20:42:00,52.0,50.0,30.09,West,261,0.0,-999.0,93,-99.99,,,0.06,weatherlink.com 1.10,2013-04-07 03:42:00,
2013-04-06 20:56:00,51.9,50.0,30.09,West,261,0.0,-999.0,93,-99.99,,,0.06,weatherlink.com 1.10,2013-04-07 03:56:00,
2013-04-06 21:12:00,51.6,50.0,30.10,West,261,0.0,-999.0,93,-99.99,,,0.06,weatherlink.com 1.10,2013-04-07 04:12:00,
2013-04-06 21:27:00,51.6,50.0,30.10,West,263,0.0,-999.0,93,-99.99,,,0.06,weatherlink.com 1.10,2013-04-07 04:27:00,
2013-04-06 21:41:00,51.4,50.0,30.09,East,88,2.0,-999.0,93,-99.99,,,0.06,weatherlink.com 1.10,2013-04-07 04:41:00,
2013-04-06 21:56:00,51.3,49.0,30.11,SW,215,1.0,-999.0,93,-99.99,,,0.06,weatherlink.com 1.10,2013-04-07 04:56:00,
2013-04-06 22:11:00,51.4,50.0,30.12,SSW,205,0.0,-999.0,93,-99.99,,,0.06,weatherlink.com 1.10,2013-04-07 05:11:00,
2013-04-06 22:28:00,51.3,49.0,30.12,ESE,115,1.0,-999.0,93,-99.99,,,0.08,weatherlink.com 1.10,2013-04-07 05:28:00,
2013-04-06 22:42:00,51.2,49.0,30.12,ESE,107,1.0,-999.0,93,-99.99,,,0.08,weatherlink.com 1.10,2013-04-07 05:42:00,
2013-04-06 22:57:00,51.1,50.0,30.11,East,86,3.0,-999.0,94,-99.99,,,0.08,weatherlink.com 1.10,2013-04-07 05:57:00,